星链-1152 (STARLINK-1152 )

导读

STARLINK-1152是美国太空探索技术公司(SpaceX)Starlink星链互联网卫星项目中的卫星,于2020年1月29日发射,属于星链早期部署批次。星链计划旨在构建全球卫星互联网星座,为全球偏远地区及特殊场景提供高速互联网服务,该星随星链星座部署逐步进入近地轨道工作,承担星座组网传输任务。

基本信息
目录编号:
45096
目录名称:
STARLINK-1152
国际标识:
2020-006BE
轨道中心:
EARTH
卫星名称:
星链-1152
卫星全名:
星链-1152 (STARLINK-1152 )
卫星状态:
在轨 (已飞行2420 天)
发射日期:
2020-01-29 UTC
国别 :
美国 (US)
星等 :
--
该卫星已列入 空间交会检测服务 Space Conjunction Data Service (SCDS) ,当前飞行风险评估等级: 无高风险
轨道信息
数据来源 国际轨道数据
星历时间: 2026-09-13T16:51:29+0800
16小时前
查看轨道信息
半长轴: 6765.425km
偏心率: 0.0001591
轨道倾角: 53.029°
近地点辐角 88.275°
升交点赤经 26.345°
平近点角 271.845°
近地点: 386.211km
远地点: 388.365km
周期: 92.300分钟
每日圈数: 15.601279
详细信息
固有亮度:
5
最大亮度:
2.5
卫星平台:
Starlink V1.0
覆盖范围:
全球
运营商:
太空探索技术公司
运营商所在国:
美国
制造商(研发单位):
太空探索技术公司
制造商所在国:
美国
使用方式:
暂无
卫星简介
星链(Starlink)计划是由太空探索技术公司(SpaceX)提出的一个巨型低轨卫星互联网星座项目,计划在2019年至2024年间在太空搭建由约1.2万颗卫星组成的“星链”网络,其中1584颗将部署在地球上空550千米处的近地轨道,并从2020年开始工作。该卫星仍在工作。
2D轨道图
3D轨道图
轨道高度分析图
轨道倾角分析图
轨道综合分析图
查看轨道综合分析图
与全量物体交会距离演化趋势
与全量物体交会风险概率演化趋势